Regional Weather Roundup
Issued by NWS

Home | Current Version | Previous Version | Graphics & Text | Print | Product List | Glossary On
Versions: 1 2 3 4 5 6 7 8 9 10 11 12 13 14 15 16 17 18 19 20 21 22 23 24 25 26 27 28 29 30 31 32 33 34 35 36 37 38 39 40 41 42 43 44 45 46 47 48 49 50
000
ASUS43 KBIS 180820
RWRND

NORTH DAKOTA REGIONAL WEATHER ROUNDUP
NATIONAL WEATHER SERVICE BISMARCK ND
300 AM CDT SAT APR 18 2015

NOTE: "FAIR" INDICATES FEW OR NO CLOUDS BELOW 12,000 FEET WITH NO
SIGNIFICANT WEATHER AND/OR OBSTRUCTIONS TO VISIBILITY.


NDZ001>003-009>011-017-180900-
NORTHWEST NORTH DAKOTA

CITY           SKY/WX    TMP DP  RH WIND       PRES   REMARKS
WILLISTON      CLEAR     48  27  44 SE7       30.05F
MINOT          CLEAR     39  26  59 SE7       30.10F
MINOT AFB      CLEAR     35  28  76 SE6       30.10F
$$

NDZ018>021-031>035-040>046-180900-
SOUTHWEST NORTH DAKOTA

CITY           SKY/WX    TMP DP  RH WIND       PRES   REMARKS
BISMARCK       PTCLDY    38  27  64 CALM      30.11S
DICKINSON      CLEAR     41  26  55 E10       30.04F
GARRISON         N/A     38  28  67 SE6       30.09F
HETTINGER ARPT MOCLDY    34  25  69 CALM      30.06F
$$

NDZ004>008-012>016-024-026-027-054-180900-
NORTHEAST NORTH DAKOTA

CITY           SKY/WX    TMP DP  RH WIND       PRES   REMARKS
GRAND FORKS    CLEAR     30  24  78 CALM      30.16R
GRND FRKS AFB  CLEAR     30  24  81 N7        30.15S
DEVILS LAKE    CLEAR     37  28  70 SE7       30.14S
$$

NDZ022-023-025-028>030-036>039-047>053-180900-
SOUTHEAST NORTH DAKOTA

CITY           SKY/WX    TMP DP  RH WIND       PRES   REMARKS
FARGO          FAIR      44  23  43 N8        30.12S
JAMESTOWN      PTCLDY    37  26  64 NE9       30.11F
$$



USA.gov is the U.S. government's official web portal to all federal, state and local government web resources and services.